OPS 4682 DEB, 20131

Orbit data source: Space-Track

OPS 4682 DEB, 20131 is space debris in LEO originally from a launch on Sat, 03 Apr 1965 UTC launched from the Air Force Western Test Range (AFWTR). Debris objects in space refer to the collection of defunct objects orbiting the Earth. Examples of debris include non-operational satellites, rocket bodies, and fragments generated from explosions, collisions, or faulty payload assembly.

Loading next visibility...
Identifier
20131, 1965-027BD
Orbit
LEO
Country
Flag of USUS
Related business
Manufacturer
Unknown
Mission
Spacecraft
Bus & Motor
Unknown
Mass
Unknown
Launch date (UTC)
1965-04-03 (61 years ago)
Launch vehicle
Unknown
Launch site
Air Force Western Test Range (AFWTR)
Object type
Payload
Rocket body
Debris
Shape & HBR
Unknown shape, 0.1 m
Radar Cross Section
Medium (>0.1 m² and <1 m²)

Expand to show TLE details & history
Last TLE update: 2 days ago

TLE from 2 days ago
0 OPS 4682 DEB
1 20131U 65027BD  26173.49754375 -.00000253  00000-0 -85809-3 0  9995
2 20131  90.2403   4.7036 0031577 302.5590  85.4208 13.00364478765667
Epoch: 2026-06-22T11:56Z
TLE epoch observation values (Epoch: 2026-06-22T11:56:27.780Z)
Latitude
28.38002°
Longitude
-85.22392°
Altitude
1,262.312 km
Speed
7.228 km/s
True Right ascension
00h 18m 17s
True Declination
28° 14' 45"
Sunlit
Object was in daylight at epoch
Visualization orbit readout
Latitude
Unknown
Longitude
Unknown
Altitude
Unknown
Speed
Unknown
Apparent Right ascension
Unknown
Apparent Declination
Unknown
Sunlit
N/A
Visualization observer readout
Local Sidereal Time
21:05:20
Azimuth
Unknown
Elevation
Unknown
Doppler factor
Unknown
Orbital elements
Apogee altitude
1,281.897 km
Perigee altitude
1,233.673 km
Semi-major axis
7,635.922 km
Eccentricity
0.00316
Inclination
90.2403°
RAAN
4.7036°
Arg. of periapsis
302.559°
True anomaly
85.7816°
Mean anomaly
85.4208°
Eccentric anomaly
85.60119°
Mean motion
3.25275 °/min
Orbital period
110.68 mins
BSTAR
-0.00085809
Loading maneuver chart data...
Computing Atmospheric mass density...
Loading historical data...
Loading historical data...
Loading historical data...
Loading historical data...
Loading historical data...
Loading historical data...
Loading historical data...

Documentation

Showing up to 5 results
|